Location: ?????????
(44.2517°N, 135.2292°E)
Time: 16:21:58
(UTC+00:00)

ARIANE 6 FM1 Upper Stage - Pass Details

Date: 24 January 2026
Orbit: 522 x 609 km, 62.0° (Epoch: 11 February)

Event Time Altitude Azimuth Distance (km) Brightness Sun altitude
Rises 09:31:55 0° 221° (SW) 2,712 7.0 -16.9°
Reaches altitude 10° 09:34:09 10° 222° (SW) 1,808 6.0 -17.3°
Maximum altitude 09:38:13 80° 308° (NW) 549 2.6 -18.0°
Enters shadow 09:39:57 33° 33° (NNE) 918 3.4 -18.3°
